Showing default

UM5-RIBAT, 60554

Orbit data source: Space-Track

UM5-RIBAT, 60554 is a Moroccan payload satellite in SSO that was launched on Fri, 16 Aug 2024 UTC via an FALCON 9 launch vehicle from the Air Force Western Test Range (AFWTR). Payload-class satellites include a variety of spacecraft equipped with specific instruments for various scientific and technological missions. These include communications satellites like Starlink; space stations such as the ISS; scientific satellites like the Hubble; Earth observation satellites from companies like Planet Labs, Umbra, and HawkEye 360; GPS; miniature CubeSats for education and research; and military/defense satellites.

Loading next visibility...
Identifier
60554, 2024-149CQ
Orbit
SSO
Country
Flag of MAMA
Related business
Manufacturer
UM5R
Mission
Operational Amateur Technology
Bus & Motor
CUBESAT 3U, Unknown motor
Mass
5 kg wet, 5 kg dry
Launch date (UTC)
2024-08-16 (2 years ago)
Launch vehicle
FALCON 9
Launch site
Air Force Western Test Range (AFWTR)
Object type
Payload
Rocket body
Debris
Shape & HBR
Box, 0.1 m
Radar Cross Section
0.080 m², Small (<0.1 m²)

Expand to show TLE details & history
Last TLE update: 6 hours ago

TLE from 6 hours ago
0 UM5-RIBAT
1 60554U 24149CQ  26112.20454365  .00002220  00000-0  17976-3 0  9990
2 60554  97.6677 190.7583 0001493 142.2297 217.9032 15.00755663 91799
Epoch: 2026-04-22T04:54Z
TLE epoch observation values (Epoch: 2026-04-22T04:54:32.571Z)
Latitude
-0.00001°
Longitude
-93.14674°
Altitude
568.44 km
Speed
7.576 km/s
True Right ascension
12h 43m 01s
True Declination
0° 00' 00"
Sunlit
Object was in full shadow at epoch
Visualization orbit readout
Latitude
Unknown
Longitude
Unknown
Altitude
Unknown
Speed
Unknown
Apparent Right ascension
Unknown
Apparent Declination
Unknown
Sunlit
N/A
Visualization observer readout
Local Sidereal Time
18:15:14
Azimuth
Unknown
Elevation
Unknown
Doppler factor
Unknown
Orbital elements
Apogee altitude
562.604 km
Perigee altitude
560.532 km
Semi-major axis
6,939.705 km
Eccentricity
0.00015
Inclination
97.6677°
RAAN
190.7583°
Arg. of periapsis
142.2297°
True anomaly
217.89269°
Mean anomaly
217.9032°
Eccentric anomaly
217.89795°
Mean motion
3.75432 °/min
Orbital period
95.89 mins
BSTAR
0.00017976
Loading maneuver chart data...
Computing Atmospheric mass density...
Loading historical data...
Loading historical data...
Loading historical data...
Loading historical data...
Loading historical data...
Loading historical data...
Loading historical data...

Documentation

Showing up to 5 results
|